Regional Weather Roundup
Issued by NWS Upton, NY

Current Version | Previous Version | Graphics & Text | Print | Product List | Glossary Off
Versions: 1 2 3 4 5 6 7 8 9 10 11 12 13 14 15 16 17 18 19 20 21 22 23 24 25 26 27 28 29 30 31 32 33 34 35 36 37 38 39 40 41 42 43 44 45 46 47 48 49

000
ASUS41 KOKX 030008
RWROKX

REGIONAL WEATHER ROUNDUP
NATIONAL WEATHER SERVICE NEW YORK NY
800 PM EDT SAT MAY 02 2015

NOTE: "FAIR" INDICATES FEW OR NO CLOUDS BELOW 12,000 FEET WITH NO
SIGNIFICANT WEATHER AND/OR OBSTRUCTIONS TO VISIBILITY.

NYZ071-072-176-178-NJZ106-104-030100-
NEW YORK CITY METRO AREA


CITY           SKY/WX    TMP DP  RH WIND       PRES   REMARKS
CENTRAL PARK   CLEAR     52  38  58 S6        30.02R
LAGUARDIA APRT PTCLDY    51  38  60 S12       29.99R
KENNEDY INTL   PTCLDY    49  39  68 S10       30.02R
NEWARK/LIBERTY PTCLDY    52  39  61 SE10G16   29.99R
BRNX BOT. GARD   N/A     50  39  66 S13       30.00S
TETERBORO      CLEAR     54  39  57 S10       29.98R
$$

NYZ177-179-078>081-030100-
LONG ISLAND NEW YORK

CITY           SKY/WX    TMP DP  RH WIND       PRES   REMARKS
FARMINGDALE    CLEAR     49  38  65 S10       30.01R
ISLIP          PTCLDY    48  38  68 S7        30.00R
SHIRLEY        CLEAR     48  36  63 S7        30.01R
WESTHAMPTON    CLEAR     45  36  70 S5        30.02R
MONTAUK POINT    N/A     47  38  71 S5        30.03R
$$

NYZ052-065-067-030100-
HUDSON VALLEY

CITY           SKY/WX    TMP DP  RH WIND       PRES   REMARKS
WHITE PLAINS   PTCLDY    52  40  63 S5        29.97R
NEWBURGH       NOT AVBL
MONTGOMERY     PTCLDY    64  44  48 S6        29.92R
POUGHKEEPSIE   PTCLDY    66  43  43 SE6       29.92R
ALBANY         MOCLDY    71  32  23 W10       29.90R
$$

NJZ001-105-106-008-010-013-015-019>022-104-030100-
NEW JERSEY

CITY           SKY/WX    TMP DP  RH WIND       PRES   REMARKS
NEWARK/LIBERTY PTCLDY    52  39  61 SE10G16   29.99R
TETERBORO      CLEAR     54  39  57 S10       29.98R
CALDWELL       CLEAR     53  40  61 S7        29.99R
MORRISTOWN     PTCLDY    55  43  62 SE8       29.98R
SOMERVILLE     CLEAR     63  44  50 SE6       29.94R
SUSSEX         PTCLDY    66  43  43 CALM      29.94R
ANDOVER          N/A     65  43  44 VRB7      29.94R
TRENTON        CLEAR     62  44  51 S10       29.95R
MILLVILLE      CLEAR     57  45  64 VRB5      29.99R
ATLANTIC CITY  CLEAR     51  39  63 S6        30.00S
WRIGHTSTOWN    CLEAR     55  43  62 S9        29.96R
TOMS RIVER     CLEAR     52  39  62 SE6       30.01R
BELMAR         CLEAR     52  36  54 SE7       30.00R
$$

PAZ047>061-062-071-030100-
EASTERN PENNSYLVANIA

CITY           SKY/WX    TMP DP  RH WIND       PRES   REMARKS
PHILADELPHIA   PTCLDY    66  45  46 S9        29.96R
ALLENTOWN      PTCLDY    63  42  46 SW5       29.93R
SCRANTON       PTCLDY    69  32  25 N8        29.95R
$$

CTZ002-004>006-009-010-012-RIZ004-006-007-MAZ004-011-015-030100-
SOUTHERN NEW ENGLAND
 IN CT

CITY           SKY/WX    TMP DP  RH WIND       PRES   REMARKS
BRADLEY INTL   PTCLDY    61  41  47 S15       29.94R
HARTFORD       CLEAR     56  40  55 S13       29.97R
DANBURY        CLEAR     57  41  55 SE5       29.98R
WTRBRY/OXFORD  PTCLDY    54  41  62 S7        29.99R
BRIDGEPORT     CLEAR     53  42  66 S9        29.99R
MERIDEN        CLEAR     53  38  56 S8        29.99R
NEW HAVEN      PTCLDY    50  41  71 S7        30.00R
CHESTER        FAIR      50  39  66 S7        29.99S
GROTON         CLEAR     47  39  74 S7        30.01R
WILLIMANTIC    CLEAR     55  38  52 S8        29.98R

 IN RI

CITY           SKY/WX    TMP DP  RH WIND       PRES   REMARKS
PROVIDENCE     PTCLDY    50  39  66 S7        30.00R
BLOCK ISLAND   CLEAR     46  37  71 SW5       30.02R
WESTERLY       CLEAR     46  37  71 S5        30.02R

 IN MA

CITY           SKY/WX    TMP DP  RH WIND       PRES   REMARKS
BOSTON         PTCLDY    48  43  82 E6        29.97S
WORCESTER      CLEAR     59  38  45 S9        29.96R
WESTFIELD      CLEAR     63  40  42 S14       29.92R
PROVINCETOWN   CLEAR     45  39  81 SE6       30.01R
NANTUCKET      CLEAR     40  35  83 NE5       30.00S
$$

ANZ330-335-338-340-345-350-353-355-030100-
COASTAL MARINE OBSERVATIONS


STATION/POSITION TIME  SKY/WX   TEMP    WIND        PRES    VSBY  WAVE
                                AIR SEA DIR/SP/G                  HT/PER
                 (UTC)          (F)     (DEG/KT/KT) (MB)    (MI)  (FT/S)
NY HARB ENTRANCE 2350            48 51  180/ 10/ 12 1015.5          5/ 7
4S FIRE IS       2303               47                N/A           5/ 8
20S FIRE ISLAND  2350            46 47  170/  6/  6 1016.1          5/ 8
GREAT SOUTH BAY  2300            48 57  210/  6/  8   N/A
23SW MTP         2350            45 45  190/  2/  4 1016.3          4/ 8
HUDSON CANYON    NOT AVBL
EXECUTION ROCKS  NOT AVBL
WESTERN LI SOUND NOT AVBL
CENTRAL LI SOUND NOT AVBL
EASTERN LI SOUND 2300            53     160/  2/  4   N/A
ROBBINS REEF     2300            49     160/ 19/ 20 1013.9
$$


>>>>>>>>>>>>>>>>>>>>>>>>>>>> KEY <<<<<<<<<<<<<<<<<<<<<<<<<<<
>                                                          <
>     SKY/WX - SKY CONDITION/PRESENT WEATHER               <
>     TMP    - TEMPERATURE IN FAHRENHEIT                   <
>     DP     - DEWPOINT IN FAHRENHEIT                      <
>     RH     - RELATIVE HUMIDITY IN PERCENT                <
>     WIND   - DIRECTION AND SPEED IN MPH                  <
>     PRES   - MEAN SEA LEVEL PRESSURE IN INCHES OF HG     <
>     WCI    - WIND CHILL INDEX                            <
>     VSB    - VISIBILITY IN MILES                         <
>     HX     - HEAT INDEX                                  <
>     TC     - TEMPERATURE IN CELSIUS                      <
>     VRB    - VARIABLE WIND DIRECTION                     <
>                                                          <
>>>>>>>>>>>>>>>>>>>>>>>>>>>> KEY <<<<<<<<<<<<<<<<<<<<<<<<<<<




USA.gov is the U.S. government's official web portal to all federal, state and local government web resources and services.